📊 Raw Sensor Data
Showing records 51076 to 51100 of 85,143 total
| ID | Distance (ft) | Battery V | Battery A | Int Temp (°F) | Int Humid (%) | Ext Temp (°F) | Solar V | RSSI | SNR | Time Stamp |
|---|---|---|---|---|---|---|---|---|---|---|
| 34080 | 15.0 | 3.93 | -5 | 47 | 39 | 49 | 0.00 | -77 | 8 | 03/04/2025 11:30 PM |
| 34079 | 15.0 | 3.99 | -5 | 48 | 39 | 50 | 0.00 | -77 | 8 | 03/04/2025 11:15 PM |
| 34078 | 15.1 | 3.93 | -5 | 48 | 39 | 49 | 0.00 | -78 | 7 | 03/04/2025 11:00 PM |
| 34077 | 15.0 | 3.99 | -5 | 48 | 39 | 49 | 0.00 | -78 | 8 | 03/04/2025 10:45 PM |
| 34076 | 15.0 | 3.94 | -5 | 49 | 39 | 50 | 0.10 | -78 | 7 | 03/04/2025 10:30 PM |
| 34075 | 15.1 | 3.99 | -5 | 49 | 39 | 50 | 0.00 | -77 | 8 | 03/04/2025 10:15 PM |
| 34074 | 15.0 | 3.94 | -5 | 49 | 39 | 51 | 0.00 | -76 | 8 | 03/04/2025 10:00 PM |
| 34073 | 15.0 | 3.94 | -5 | 49 | 39 | 50 | 0.00 | -77 | 8 | 03/04/2025 09:45 PM |
| 34072 | 15.0 | 4.00 | -5 | 49 | 39 | 51 | 0.00 | -78 | 8 | 03/04/2025 09:30 PM |
| 34071 | 15.0 | 3.94 | -5 | 49 | 39 | 51 | 0.00 | -77 | 8 | 03/04/2025 09:15 PM |
| 34070 | 15.0 | 4.00 | -5 | 50 | 39 | 52 | 0.00 | -77 | 7 | 03/04/2025 09:00 PM |
| 34069 | 15.0 | 3.94 | -5 | 50 | 39 | 51 | 0.00 | -77 | 8 | 03/04/2025 08:45 PM |
| 34068 | 15.0 | 4.00 | -5 | 50 | 39 | 52 | 0.00 | -78 | 8 | 03/04/2025 08:30 PM |
| 34067 | 15.0 | 3.94 | -5 | 50 | 39 | 52 | 0.10 | -77 | 8 | 03/04/2025 08:15 PM |
| 34066 | 15.0 | 3.94 | -5 | 50 | 40 | 52 | 0.00 | -78 | 7 | 03/04/2025 08:00 PM |
| 34065 | 15.0 | 3.94 | -5 | 50 | 40 | 52 | 0.00 | -78 | 7 | 03/04/2025 07:45 PM |
| 34064 | 15.0 | 3.94 | -5 | 51 | 40 | 52 | 0.00 | -78 | 8 | 03/04/2025 07:30 PM |
| 34063 | 15.0 | 3.95 | -5 | 51 | 41 | 53 | 0.00 | -78 | 8 | 03/04/2025 07:15 PM |
| 34062 | 15.0 | 3.95 | -5 | 52 | 41 | 53 | 0.00 | -78 | 7 | 03/04/2025 07:00 PM |
| 34061 | 15.0 | 4.01 | -5 | 52 | 42 | 53 | 0.10 | -77 | 8 | 03/04/2025 06:45 PM |
| 34060 | 15.0 | 3.95 | -5 | 53 | 43 | 53 | 0.00 | -78 | 8 | 03/04/2025 06:30 PM |
| 34059 | 15.0 | 4.01 | -5 | 54 | 43 | 55 | 0.60 | -77 | 8 | 03/04/2025 06:15 PM |
| 34058 | 15.0 | 3.94 | -10 | 56 | 44 | 55 | 3.20 | -77 | 8 | 03/04/2025 06:00 PM |
| 34057 | 15.0 | 3.97 | 0 | 59 | 43 | 56 | 4.50 | -77 | 8 | 03/04/2025 05:45 PM |
| 34056 | 15.0 | 4.05 | 31 | 63 | 41 | 58 | 4.50 | -77 | 7 | 03/04/2025 05:30 PM |